sat.trackr.live / text

‹ back to catalog

HULIANWANG DIGUI-140

NORAD 67438 · 2026-007D

PAYLOAD ACTIVE UNKNOWN

§ Identity

Operator
Country
PRC
Launch date
2026-01-13
Launch site
WSC
Launch vehicle
Mass (kg)
RCS (m²)

External: N2YO · Heavens-Above · Gunter

§ Orbital elements

Epoch: 2026-05-25T00:36:53.281152Z

Period
108.33 min
Inclination
50.0033°
Eccentricity
0.0000869
Mean motion
13.29325038 rev/d
Perigee alt
1,148.7 km
Apogee alt
1,150.0 km
Semi-major
7,527.4 km
B*
8.6682e-5
RAAN
169.1031°
Arg perigee
280.8743°
Mean anomaly
79.2031°
Rev number
1,770

§ Raw data

HULIANWANG DIGUI-1401 67438U 26007D   26145.02561668 -.00000084  00000+0  86682-4 0  99912 67438  50.0033 169.1031 0000869 280.8743  79.2031 13.29325038 17700

JSON: /api/v1/satellites/67438 · /tle

For live sub-satellite position, see the globe view (requires WebGL).

§ Visibility from observer

Set your observer location to see the next 7 days of passes ≥ 10°. The values pass through the URL so the page stays shareable.

No JS? Fill the form by hand. The geolocation button needs JavaScript.